Weather History for KOCH - October, 2013

Change the Weather History Date:

Wednesday, October 23, 2013

  Actual Average Record
Temperature  
Mean Temperature 62 °F -  
Max Temperature 78 °F 74 °F 87 °F (2003)
Min Temperature 46 °F 53 °F 35 °F (1996)
Degree Days  
Heating Degree Days 3    
Growing Degree Days 12 (Base 50)    
Moisture  
Dew Point 47 °F    
Average Humidity 67    
Maximum Humidity 93    
Minimum Humidity 32    
Precipitation  
Precipitation 0.00 in - - ()
Sea Level Pressure  
Sea Level Pressure 30.11 in    
Wind  
Wind Speed 1 mph (SE)    
Max Wind Speed 6 mph    
Max Gust Speed -    
Visibility 10 miles    
Events      
Averages and records for this station are not official NWS values.
T = Trace of Precipitation, MM = Missing Value Source: NWS Daily Summary

Daily Weather History Graph

Daily Weather History Graph

Search for Another Location

Airport or City:

Trip Planner

Search our weather history database for the weather conditions in past years. The results will help you decide how hot, cold, wet, or windy it might be!

Date:

Astronomy

Oct. 23, 2013 Rise Set
Actual Time 7:27 AM CDT 6:37 PM CDT
Civil Twilight 7:03 AM CDT 7:02 PM CDT
Nautical Twilight 6:34 AM CDT 7:30 PM CDT
Astronomical Twilight 6:06 AM CDT 7:59 PM CDT
Moon 10:18 PM CDT (10/23) 11:36 AM CDT (10/23)
Length of Visible Light 11h 59m
Length of Day
11h 09m
Waning Gibbous, 79% of the Moon is Illuminated
Oct 23
Waning Gibbous
Oct 26
Last Quarter
Nov 3
New
Nov 9
First Quarter
Nov 17
Full

Hourly Weather History & Observations

Time (CDT) Temp. Dew Point Humidity Pressure Visibility Wind Dir Wind Speed Gust Speed Precip Events Conditions
12:15 AM 48.2 °F 44.6 °F 87% 30.09 in 10.0 mi Calm Calm - N/A   Clear
12:35 AM 48.2 °F 44.6 °F 87% 30.08 in 10.0 mi Calm Calm - N/A   Clear
12:55 AM 46.4 °F 44.6 °F 93% 30.09 in 10.0 mi Calm Calm - N/A   Clear
1:15 AM 46.4 °F 44.6 °F 93% 30.09 in 10.0 mi Calm Calm - N/A   Clear
1:35 AM 46.4 °F 44.6 °F 93% 30.09 in 10.0 mi Calm Calm - N/A   Clear
1:55 AM 46.4 °F 44.6 °F 93% 30.10 in 10.0 mi Calm Calm - N/A   Clear
2:15 AM 46.4 °F 44.6 °F 93% 30.10 in 10.0 mi Calm Calm - N/A   Clear
2:35 AM 46.4 °F 44.6 °F 93% 30.10 in 10.0 mi Calm Calm - N/A   Clear
2:55 AM 46.4 °F 42.8 °F 87% 30.10 in 10.0 mi Calm Calm - N/A   Clear
3:15 AM 46.4 °F 42.8 °F 87% 30.10 in 10.0 mi Calm Calm - N/A   Clear
3:35 AM 46.4 °F 42.8 °F 87% 30.10 in 10.0 mi Calm Calm - N/A   Clear
3:55 AM 46.4 °F 42.8 °F 87% 30.10 in 10.0 mi Calm Calm - N/A   Clear
4:15 AM 46.4 °F 42.8 °F 87% 30.10 in 10.0 mi Calm Calm - N/A   Clear
4:35 AM 46.4 °F 42.8 °F 87% 30.09 in 10.0 mi Calm Calm - N/A   Clear
4:55 AM 46.4 °F 42.8 °F 87% 30.10 in 10.0 mi Calm Calm - N/A   Clear
5:15 AM 46.4 °F 42.8 °F 87% 30.10 in 10.0 mi Calm Calm - N/A   Clear
5:35 AM 46.4 °F 42.8 °F 87% 30.10 in 10.0 mi Calm Calm - N/A   Clear
5:55 AM 46.4 °F 42.8 °F 87% 30.10 in 10.0 mi Calm Calm - N/A   Clear
6:15 AM 46.4 °F 42.8 °F 87% 30.10 in 10.0 mi Calm Calm - N/A   Clear
6:35 AM 46.4 °F 42.8 °F 87% 30.11 in 10.0 mi Calm Calm - N/A   Clear
6:55 AM 46.4 °F 42.8 °F 87% 30.11 in 10.0 mi Calm Calm - N/A   Clear
7:15 AM 46.4 °F 42.8 °F 87% 30.12 in 10.0 mi Calm Calm - N/A   Clear
7:35 AM 46.4 °F 42.8 °F 87% 30.12 in 10.0 mi Calm Calm - N/A   Clear
7:55 AM 46.4 °F 42.8 °F 87% 30.13 in 10.0 mi Calm Calm - N/A   Clear
8:15 AM 46.4 °F 44.6 °F 93% 30.13 in 10.0 mi Calm Calm - N/A   Clear
8:35 AM 51.8 °F 46.4 °F 82% 30.13 in 10.0 mi Calm Calm - N/A   Clear
8:55 AM 55.4 °F 48.2 °F 77% 30.14 in 10.0 mi Calm Calm - N/A   Clear
9:15 AM 57.2 °F 51.8 °F 82% 30.14 in 10.0 mi Calm Calm - N/A   Clear
9:35 AM 62.6 °F 48.2 °F 59% 30.15 in 10.0 mi NW 4.6 mph - N/A   Clear
9:55 AM 64.4 °F 51.8 °F 64% 30.15 in 10.0 mi Calm Calm - N/A   Clear
10:15 AM 68.0 °F 53.6 °F 60% 30.15 in 10.0 mi Calm Calm - N/A   Clear
10:35 AM 69.8 °F 53.6 °F 56% 30.15 in 10.0 mi Calm Calm - N/A   Clear
10:55 AM 73.4 °F 51.8 °F 47% 30.15 in 10.0 mi ENE 5.8 mph - N/A   Clear
11:15 AM 73.4 °F 50.0 °F 44% 30.14 in 10.0 mi East 5.8 mph - N/A   Clear
11:35 AM 75.2 °F 48.2 °F 38% 30.14 in 10.0 mi East 4.6 mph - N/A   Clear
11:55 AM 75.2 °F 48.2 °F 38% 30.14 in 10.0 mi SE 5.8 mph - N/A   Clear
12:15 PM 75.2 °F 46.4 °F 36% 30.14 in 10.0 mi SE 5.8 mph - N/A   Clear
12:35 PM 75.2 °F 48.2 °F 38% 30.13 in 10.0 mi ESE 3.5 mph - N/A   Clear
12:55 PM 77.0 °F 48.2 °F 36% 30.13 in 10.0 mi East 4.6 mph - N/A   Clear
1:15 PM 77.0 °F 46.4 °F 34% 30.12 in 10.0 mi SE 3.5 mph - N/A   Clear
1:35 PM 77.0 °F 46.4 °F 34% 30.11 in 10.0 mi East 4.6 mph - N/A   Clear
1:55 PM 78.8 °F 46.4 °F 32% 30.10 in 10.0 mi East 5.8 mph - N/A   Clear
2:15 PM 78.8 °F 46.4 °F 32% 30.10 in 10.0 mi South 3.5 mph - N/A   Clear
2:35 PM 78.8 °F 46.4 °F 32% 30.09 in 10.0 mi SSE 5.8 mph - N/A   Clear
2:55 PM 78.8 °F 48.2 °F 34% 30.09 in 10.0 mi WSW 4.6 mph - N/A   Clear
3:15 PM 78.8 °F 46.4 °F 32% 30.09 in 10.0 mi Calm Calm - N/A   Clear
3:35 PM 78.8 °F 46.4 °F 32% 30.09 in 10.0 mi Calm Calm - N/A   Clear
3:55 PM 78.8 °F 48.2 °F 34% 30.09 in 10.0 mi Calm Calm - N/A   Clear
4:15 PM 78.8 °F 48.2 °F 34% 30.09 in 10.0 mi WSW 4.6 mph - N/A   Clear
4:35 PM 78.8 °F 48.2 °F 34% 30.09 in 10.0 mi WSW 3.5 mph - N/A   Clear
4:55 PM 78.8 °F 46.4 °F 32% 30.09 in 10.0 mi Calm Calm - N/A   Clear
5:15 PM 78.8 °F 46.4 °F 32% 30.09 in 10.0 mi SSW 3.5 mph - N/A   Clear
5:35 PM 78.8 °F 46.4 °F 32% 30.09 in 10.0 mi Calm Calm - N/A   Clear
5:55 PM 75.2 °F 48.2 °F 38% 30.09 in 10.0 mi South 3.5 mph - N/A   Clear
6:15 PM 71.6 °F 55.4 °F 57% 30.09 in 10.0 mi Calm Calm - N/A   Clear
6:35 PM 66.2 °F 55.4 °F 68% 30.09 in 10.0 mi ESE 3.5 mph - N/A   Clear
6:55 PM 64.4 °F 53.6 °F 68% 30.10 in 10.0 mi SE 4.6 mph - N/A   Clear
7:15 PM 64.4 °F 53.6 °F 68% 30.10 in 10.0 mi SE 4.6 mph - N/A   Clear
7:35 PM 60.8 °F 53.6 °F 77% 30.11 in 10.0 mi SSE 3.5 mph - N/A   Clear
7:55 PM 60.8 °F 51.8 °F 72% 30.11 in 10.0 mi Calm Calm - N/A   Clear
8:15 PM 60.8 °F 51.8 °F 72% 30.11 in 10.0 mi Calm Calm - N/A   Clear
8:35 PM 59.0 °F 51.8 °F 77% 30.11 in 10.0 mi Calm Calm - N/A   Clear
8:55 PM 57.2 °F 51.8 °F 82% 30.12 in 10.0 mi Calm Calm - N/A   Clear
9:15 PM 57.2 °F 51.8 °F 82% 30.12 in 10.0 mi Calm Calm - N/A   Clear
9:35 PM 55.4 °F 50.0 °F 82% 30.12 in 10.0 mi Calm Calm - N/A   Clear
9:55 PM 55.4 °F 50.0 °F 82% 30.12 in 10.0 mi Calm Calm - N/A   Clear
10:15 PM 55.4 °F 50.0 °F 82% 30.12 in 10.0 mi Calm Calm - N/A   Clear
10:35 PM 55.4 °F 50.0 °F 82% 30.12 in 10.0 mi Calm Calm - N/A   Clear
10:55 PM 53.6 °F 48.2 °F 82% 30.13 in 10.0 mi Calm Calm - N/A   Clear
11:15 PM 53.6 °F 48.2 °F 82% 30.12 in 10.0 mi Calm Calm - N/A   Clear
11:35 PM 53.6 °F 48.2 °F 82% 30.13 in 10.0 mi Calm Calm - N/A   Clear
11:55 PM 51.8 °F 48.2 °F 88% 30.13 in 10.0 mi Calm Calm - N/A   Clear